Tuxtla Gutierrez, Mexico

4:25 PM CST on December 06, 2016 (GMT -0600)
Francisco Sarabia

Weather History for MMTG - September, 2013

Change the Weather History Date:

Thursday, September 19, 2013

  Actual Average Record
Temperature  
Mean Temperature 82 °F -  
Max Temperature 92 °F 80 °F 93 °F (2014)
Min Temperature 71 °F 66 °F 64 °F (1998)
Cooling Degree Days 16    
Growing Degree Days 32 (Base 50)    
Moisture  
Dew Point 72 °F    
Average Humidity 90    
Maximum Humidity 100    
Minimum Humidity 68    
Precipitation  
Precipitation 0.83 in - - ()
Sea Level Pressure  
Sea Level Pressure 29.83 in    
Wind  
Wind Speed 2 mph ()    
Max Wind Speed 9 mph    
Max Gust Speed -    
Visibility 6.6 miles    
Events Rain    
Averages and records for this station are not official NWS values.
T = Trace of Precipitation, MM = Missing Value Source: Averaged Metar Reports

Daily Weather History Graph

Daily Weather History Graph

Search for Another Location

Airport or City:

Trip Planner

Search our weather history database for the weather conditions in past years. The results will help you decide how hot, cold, wet, or windy it might be!

Date:

Astronomy

Sep. 19, 2013 Rise Set
Actual Time 7:00 AM CDT 7:10 PM CDT
Civil Twilight 6:39 AM CDT 7:32 PM CDT
Nautical Twilight 6:14 AM CDT 7:57 PM CDT
Astronomical Twilight 5:48 AM CDT 8:22 PM CDT
Moon 7:21 PM CDT (9/19) 7:02 AM CDT (9/19)
Length of Visible Light 12h 52m
Length of Day
12h 09m
Full, 100% of the Moon is Illuminated
Sep 19
Full
Sep 26
Last Quarter
Oct 4
New
Oct 11
First Quarter
Oct 18
Full

Hourly Weather History & Observations

Time (CDT) Temp. Heat Index Dew Point Humidity Pressure Visibility Wind Dir Wind Speed Gust Speed Precip Events Conditions
12:45 AM 75 °F - 72 °F 87% 29.79 in 9 mi SW 2.2 mph - -   Partly Cloudy
12:51 AM 75.2 °F - 71.6 °F 89% 29.78 in 10.0 mi Calm Calm - N/A   Overcast
3:45 AM 74 °F - 71 °F 88% 29.77 in 9 mi SW 2.2 mph - - Rain Light Drizzle
5:49 AM 71.6 °F - 69.8 °F 94% 29.85 in 0.8 mi Calm Calm - N/A Rain Light Rain
6:23 AM 71.6 °F - 71.6 °F 100% 29.86 in 1.5 mi Calm Calm - N/A   Overcast
6:48 AM 71.6 °F - 71.6 °F 100% 29.77 in 1.2 mi East 2.3 mph - N/A   Overcast
7:47 AM 71.6 °F - 71.6 °F 100% 29.88 in 2.0 mi Calm Calm - N/A   Overcast
8:44 AM 73.4 °F - 71.6 °F 94% 29.90 in 2.5 mi Calm Calm - N/A   Overcast
9:50 AM 74 °F - 71 °F 88% 29.86 in 6 mi ENE 2.2 mph - - Rain Light Rain
9:50 AM 73.4 °F - 71.6 °F 94% 29.83 in 1.5 mi Calm Calm - N/A   Overcast
10:42 AM 75.2 °F - 73.4 °F 94% 29.92 in 3.0 mi NNW 2.3 mph - N/A   Overcast
11:45 AM 78.8 °F - 71.6 °F 78% 29.91 in 7.0 mi Calm Calm - N/A   Mostly Cloudy
12:45 PM 82.4 °F 88.2 °F 73.4 °F 74% 29.79 in 7.0 mi NNE 3.5 mph - N/A   Mostly Cloudy
12:50 PM 82 °F - 73 °F 68% 29.81 in 9 mi SE 2.2 mph - -   Partly Cloudy
1:40 PM 77.0 °F - 73.4 °F 89% 29.86 in 3.0 mi WSW 6.9 mph - N/A Rain Rain
2:19 PM 77.0 °F - 73.4 °F 89% 29.85 in 5.0 mi NW 5.8 mph - N/A   Mostly Cloudy
2:43 PM 78.8 °F - 75.2 °F 89% 29.84 in 7.0 mi NNW 5.8 mph - N/A   Mostly Cloudy
3:40 PM 77.0 °F - 71.6 °F 83% 29.73 in 7.0 mi North 9.2 mph - N/A   Mostly Cloudy
3:50 PM 77 °F - 73 °F 85% 29.75 in 9 mi SE 2.2 mph - - Rain Light Rain
4:42 PM 78.8 °F - 73.4 °F 83% 29.82 in 8.0 mi NNW 4.6 mph - N/A   Overcast
5:14 PM 75.2 °F - 73.4 °F 94% 29.81 in 6.0 mi NW 9.2 mph - N/A Rain Rain
5:28 PM 75.2 °F - 73.4 °F 94% 29.83 in 8.0 mi WNW 6.9 mph - N/A   Overcast
5:50 PM 75.2 °F - 71.6 °F 89% 29.83 in 8.0 mi WNW 5.8 mph - N/A   Overcast
6:51 PM 75.2 °F - 71.6 °F 89% 29.76 in 10.0 mi NW 4.6 mph - N/A   Overcast
6:55 PM 74 °F - 72 °F 91% 29.76 in 6 mi Calm Calm - - Rain Light Rain
7:45 PM 73.4 °F - 71.6 °F 94% 29.87 in 10.0 mi Calm Calm - N/A   Overcast
8:47 PM 73.4 °F - 71.6 °F 94% 29.90 in 10.0 mi Calm Calm - N/A   Overcast
9:42 PM 73.4 °F - 71.6 °F 94% 29.83 in 10.0 mi Calm Calm - N/A   Overcast
9:50 PM 74 °F - 72 °F 93% 29.85 in 9 mi NW 2.2 mph - -   Partly Cloudy
10:48 PM 73.4 °F - 73.4 °F 100% 29.93 in 10.0 mi Calm Calm - N/A   Overcast
11:44 PM 73.4 °F - 71.6 °F 94% 29.93 in 10.0 mi Calm Calm - N/A   Overcast